Temperature
19 19 19 19 19 19 19 19 19 18 18 18 18 17 17 17 17 16 16 16 16 16 15 15 15 15 15 15 15 15 15 15 15 15 15 16 16 16 16 16 16 16 16
19 19 19 19 19 19 19 19 18 18 18 18 17 17 17 17 16 16 16 16 15 15 15 15 15 15 15 15 15 14 14 15 14 14 14 14 15 16 16 16 16 16 16
19 19 19 19 19 19 19 19 18 18 18 17 17 17 16 16 16 16 15 15 15 15 14 14 14 14 14 14 14 14 14 14 14 14 13 13 14 14 15 15 15 15 16
19 20 19 19 19 19 18 18 18 18 17 17 16 16 16 15 15 15 15 14 14 14 14 14 14 14 14 14 14 14 13 13 13 13 13 13 13 13 14 14 15 15 15
19 19 19 19 19 19 18 18 18 17 17 16 16 15 15 15 14 14 14 14 13 13 13 13 13 13 13 13 13 13 13 13 13 13 13 13 13 13 13 13 14 15 15
19 19 19 19 19 18 18 18 17 17 16 16 15 15 14 14 14 13 13 13 12 12 12 12 12 12 12 12 12 13 13 13 13 13 13 13 13 13 13 12 13 14 14
19 20 19 19 19 18 18 17 17 16 16 15 15 14 14 13 13 12 12 12 12 12 12 11 11 11 12 12 12 12 12 12 12 12 12 12 12 12 12 12 12 13 14
20 20 19 19 18 18 17 17 16 16 15 14 14 13 13 12 12 12 12 11 11 11 11 11 11 11 11 11 11 11 11 12 12 12 12 12 12 12 12 12 12 12 13
20 19 19 19 18 17 17 16 15 15 14 14 13 13 12 12 12 11 11 11 11 11 10 10 10 10 10 10 10 10 11 11 11 11 11 11 12 11 11 11 12 11 11
19 19 19 18 17 17 16 15 15 14 13 13 12 12 12 11 11 11 10 10 10 10 10 10 10 10 10 10 10 10 10 10 11 11 11 11 11 11 11 11 11 11 11
19 19 18 17 17 16 15 15 14 13 13 12 12 12 11 11 11 10 10 10 10 9 9 9 9 9 9 9 9 9 10 10 10 10 10 11 11 11 11 11 11 11 11
19 18 18 17 16 16 15 14 13 13 12 12 12 11 11 11 10 10 10 9 9 9 9 9 9 9 9 9 9 9 9 9 9 10 10 10 10 10 11 11 11 11 11
18 18 17 17 16 15 14 14 13 12 12 12 11 11 11 10 10 10 9 9 9 9 9 9 9 9 9 9 9 9 9 9 9 9 9 9 10 10 10 10 10 11 11
18 17 17 16 15 15 14 13 13 12 12 11 11 10 10 10 9 9 9 9 9 9 9 8 8 8 8 8 8 8 8 8 9 9 9 9 9 9 10 10 10 10 10
18 17 17 16 15 14 13 13 12 12 11 11 10 10 10 9 9 9 9 9 8 8 8 8 8 8 8 8 8 8 8 8 8 8 8 9 9 9 9 9 10 10 10
18 17 16 15 15 14 13 12 12 11 11 10 10 10 9 9 9 9 8 8 8 8 8 8 8 8 8 8 8 8 8 8 8 8 8 8 8 9 9 9 9 10 10
18 17 16 15 14 13 13 12 11 11 10 10 10 9 9 9 9 8 8 8 8 8 8 8 8 8 8 8 8 7 7 7 7 8 8 8 8 8 8 9 9 9 9
17 16 16 15 14 13 12 12 11 11 10 10 9 9 9 9 8 8 8 8 8 8 8 8 8 8 8 8 8 7 7 7 7 7 7 7 8 8 8 8 8 9 9
17 16 15 14 14 13 12 11 11 10 10 10 9 9 9 8 8 8 8 8 8 8 8 8 8 8 8 8 7 7 7 7 7 7 7 7 7 8 8 8 8 8 9
17 16 15 14 13 13 12 11 11 10 10 9 9 9 8 8 8 8 8 8 8 8 8 8 8 8 7 7 7 7 7 7 7 7 7 7 7 7 7 7 8 8 8
17 16 15 14 13 12 12 11 11 10 10 9 9 9 9 8 8 8 8 8 8 8 8 8 8 7 7 7 7 7 7 7 7 7 7 7 7 7 7 7 7 8 8
17 16 15 14 13 12 12 11 11 10 10 10 9 9 9 8 8 8 8 8 8 8 8 8 8 8 7 7 7 7 6 6 6 6 7 7 7 7 7 7 7 8 8
17 16 15 14 13 12 12 11 11 10 10 10 9 9 9 9 9 8 8 8 8 8 8 8 8 8 7 7 7 6 6 6 6 6 6 6 7 7 7 7 7 7 7
17 16 15 14 14 13 12 11 11 10 10 10 10 9 9 9 9 9 8 8 8 8 8 8 7 7 7 7 7 6 6 6 6 6 6 6 6 6 7 7 7 7 7
17 16 15 15 14 13 12 11 11 10 10 10 10 9 9 9 9 9 9 9 8 8 8 8 7 7 7 7 6 6 6 6 6 6 6 6 6 6 6 7 7 7 7
17 16 16 15 14 13 12 12 11 11 10 10 10 10 9 9 9 9 9 9 9 8 8 8 7 7 7 7 6 6 6 6 6 6 6 6 6 6 6 7 7 7 7
Wind_Speed
1 1 1 2 2 3 4 4 4 4 3 2 2 1 1 0 0 1 1 1 1 1 2 2 2 2 2 3 3 2 3 3 2 3 5 6 8 9 9 9 9 10 13
1 2 2 2 2 3 3 3 4 3 3 2 2 1 1 1 1 1 2 2 2 2 2 3 3 3 3 3 3 3 2 2 2 2 2 4 4 4 7 7 9 10 8
5 5 4 4 4 5 4 4 4 3 2 2 2 2 2 2 2 2 2 3 4 4 4 4 3 4 3 4 5 4 4 3 2 3 3 2 3 4 3 4 6 7 7
5 5 5 5 6 5 4 3 2 2 2 2 2 2 2 2 2 2 2 4 5 5 5 4 4 4 4 5 6 5 5 4 4 3 4 5 4 3 4 3 3 5 7
5 6 6 5 3 2 2 2 2 1 1 2 2 2 2 2 2 2 4 4 5 5 5 4 4 4 4 5 6 5 5 4 4 4 3 3 4 5 5 5 4 3 4
5 4 3 2 1 1 1 1 2 1 0 1 1 2 3 3 3 4 4 4 4 5 6 5 4 5 4 5 6 5 6 5 5 5 4 3 3 3 4 5 5 5 4
4 3 3 2 2 1 1 1 1 1 1 1 2 2 3 4 5 5 5 5 4 4 6 5 5 5 5 5 5 5 6 6 6 6 5 5 5 4 3 4 4 4 3
3 3 3 3 2 2 1 1 1 1 2 2 3 3 3 3 4 5 5 5 5 6 7 7 6 7 6 6 5 5 6 5 7 8 7 5 6 5 4 3 3 4 3
2 3 3 2 2 2 1 1 1 1 3 3 3 4 4 4 5 6 5 5 6 6 7 7 7 7 7 6 6 5 6 5 6 7 7 6 6 5 5 4 4 3 4
3 3 2 1 1 0 0 1 1 3 4 4 4 4 5 5 5 5 7 7 7 7 7 8 7 7 7 7 6 6 7 7 7 6 7 7 6 6 6 5 5 4 4
4 2 1 0 0 1 2 2 3 4 5 5 5 5 6 6 6 6 7 7 7 7 7 8 8 8 8 7 7 8 8 8 8 7 8 9 8 7 6 6 5 5 5
3 2 1 1 2 3 4 4 5 5 6 5 5 6 6 6 6 7 7 7 7 8 8 8 8 9 9 8 8 9 9 9 10 10 9 10 8 9 7 7 7 6 6
3 1 1 3 4 5 5 6 6 6 6 5 5 6 7 7 7 8 8 7 8 8 8 8 9 9 9 9 9 9 10 10 10 10 10 10 10 10 8 9 8 7 6
3 3 4 5 6 6 6 6 7 6 6 5 6 7 8 8 8 8 8 8 8 9 9 9 9 10 10 10 10 10 10 11 11 11 11 11 11 11 11 9 10 8 7
5 6 6 6 6 7 7 6 7 6 5 6 7 8 8 8 8 8 9 9 9 10 9 10 10 10 9 10 10 10 10 10 11 11 11 11 13 14 12 9 10 10 8
8 8 8 7 7 7 7 7 7 6 5 6 8 8 8 8 9 9 9 9 10 10 9 10 10 11 10 11 14 12 10 10 11 11 11 11 13 15 15 16 14 13 11
9 9 9 8 8 7 7 7 7 6 6 7 8 8 8 9 10 10 9 10 10 9 10 10 10 11 12 15 16 17 12 11 11 12 11 10 11 12 11 12 14 15 16
9 9 8 7 6 6 6 6 6 6 7 8 8 8 9 10 10 10 10 10 9 9 10 11 11 11 12 14 15 15 12 11 12 12 12 11 11 11 10 11 10 10 12
9 8 7 6 5 7 6 5 6 6 7 8 9 9 9 10 10 11 10 9 9 10 10 10 11 11 12 13 14 12 8 9 11 11 11 12 12 13 13 11 11 10 9
7 7 5 4 6 7 4 5 7 7 8 9 9 9 9 9 11 11 10 9 9 10 10 10 10 10 11 12 12 10 6 8 9 9 10 13 13 13 14 12 11 11 10
8 6 6 6 7 6 4 6 7 8 9 8 8 9 9 9 10 10 8 9 9 9 9 10 9 9 10 11 11 9 6 7 8 8 8 8 13 14 14 13 11 11 9
7 7 6 7 7 5 5 7 8 8 7 7 8 9 9 9 8 9 9 9 8 9 9 8 9 7 7 8 9 9 8 8 8 8 7 7 11 13 14 12 11 11 10
8 6 6 7 7 6 6 8 8 7 6 7 9 9 10 9 8 8 9 9 7 7 8 7 8 8 6 6 8 9 8 8 6 6 8 8 10 10 9 11 12 10 8
8 6 6 7 7 6 6 8 8 6 6 8 9 9 9 10 9 7 7 7 7 7 7 7 7 7 7 5 5 4 5 6 5 4 5 6 7 7 6 6 8 7 8
7 6 7 8 9 7 7 7 6 5 6 8 8 9 8 9 9 9 7 8 8 8 8 7 7 7 8 7 7 6 5 4 4 2 2 2 3 4 5 5 6 6 7
6 6 7 8 8 7 7 7 6 5 6 7 8 7 7 8 8 8 9 9 10 11 12 11 9 8 10 11 10 8 8 7 6 3 2 3 3 4 5 6 6 7 7
Wind_Direction
163 169 182 169 143 155 158 162 155 157 143 130 136 143 195 255 294 274 280 288 288 271 247 257 261 251 244 248 246 246 255 257 244 273 287 278 256 247 245 240 237 237 235
214 222 213 213 213 211 193 179 175 175 178 167 156 160 155 190 254 318 333 336 332 307 273 258 262 256 252 262 248 223 238 254 223 231 292 305 304 269 246 236 234 239 235
214 219 225 224 224 223 214 199 197 193 184 153 107 83 61 29 359 337 323 322 321 309 294 274 261 256 239 249 245 223 219 240 250 219 226 264 286 312 291 248 240 241 238
235 228 231 233 228 227 215 206 200 201 184 155 155 161 174 224 247 262 288 307 313 308 298 282 270 259 246 247 250 232 221 219 241 247 233 235 250 276 305 306 269 256 248
238 233 230 231 241 232 207 196 182 209 211 181 179 177 206 236 269 288 298 304 306 303 296 285 275 267 256 250 249 242 226 219 224 226 232 242 248 245 259 286 300 293 262
231 230 227 219 233 199 165 162 168 244 291 219 205 207 237 261 282 288 291 293 295 297 293 286 276 271 262 254 249 243 236 228 229 230 225 225 232 237 243 265 287 292 284
224 218 207 205 199 169 147 110 122 319 333 308 277 261 258 258 259 268 273 280 286 283 282 283 277 273 264 259 252 245 243 233 230 231 232 230 234 237 240 257 276 282 288
221 207 197 187 182 162 129 113 110 303 314 302 291 284 269 256 258 261 260 263 263 268 276 279 274 270 268 268 257 250 249 239 235 239 233 233 236 231 231 237 264 289 288
202 180 165 157 161 144 141 160 184 272 289 289 289 285 280 269 269 273 267 265 264 270 272 273 273 272 268 264 259 254 256 249 242 242 238 234 238 232 231 231 232 250 278
172 154 136 137 149 180 296 308 260 267 279 285 280 281 280 275 272 276 276 273 273 273 280 279 276 274 271 266 258 257 258 255 251 245 243 241 238 234 230 227 228 227 242
187 174 166 181 295 311 293 284 283 280 281 281 281 285 284 283 281 276 275 277 279 279 277 277 277 275 272 267 258 256 257 254 256 252 245 245 239 233 229 224 225 226 227
164 162 185 280 293 286 285 284 285 282 278 281 285 284 284 286 284 280 280 280 280 279 276 276 275 274 272 264 258 260 259 252 253 252 247 249 244 234 229 223 224 224 221
153 175 258 272 276 280 284 288 287 282 282 286 287 288 288 287 282 280 282 283 282 283 282 276 273 273 271 268 263 258 259 255 252 250 246 246 240 237 230 224 223 222 222
200 228 255 265 273 277 281 285 287 282 283 286 287 286 286 284 282 281 282 282 281 281 280 277 274 272 271 269 266 261 258 256 254 251 247 244 237 235 230 226 223 218 216
232 241 250 262 271 278 280 279 280 284 287 290 289 285 286 286 285 285 284 284 282 282 278 279 279 275 272 266 261 257 257 254 255 254 250 246 241 236 229 225 218 212 210
241 249 256 261 266 268 272 276 277 281 287 285 285 287 290 292 289 287 287 287 287 285 283 281 279 278 274 268 265 265 262 257 255 256 254 251 251 245 235 228 218 208 205
241 247 251 254 259 261 260 264 269 282 287 284 287 290 291 293 291 292 293 290 289 288 288 285 281 278 274 269 269 269 266 258 254 251 251 253 248 235 232 231 227 220 215
241 247 249 254 260 260 262 265 274 280 283 286 288 290 292 294 294 294 291 289 288 289 288 287 285 282 280 275 270 270 267 259 252 247 243 243 246 239 227 224 224 223 223
231 236 239 243 257 265 265 273 281 283 286 286 288 290 292 295 297 296 293 291 290 292 289 287 286 285 286 282 278 273 268 259 255 249 241 236 239 235 223 222 221 222 229
234 236 242 244 256 262 262 266 276 283 282 283 286 289 290 292 293 291 290 289 288 288 290 288 285 283 284 285 285 281 264 259 257 251 243 236 232 228 215 216 215 217 221
228 229 233 242 250 258 252 259 271 273 274 281 287 292 291 290 288 286 286 290 291 291 290 289 290 285 281 286 286 285 264 253 254 251 245 238 226 222 215 211 213 214 209
227 224 225 245 255 250 238 257 266 269 279 285 291 293 293 293 294 292 293 292 291 293 293 295 298 293 286 285 292 293 282 260 248 248 246 238 224 219 212 211 211 205 198
224 221 221 245 261 252 231 251 264 276 286 291 293 296 299 297 292 291 295 300 296 292 293 293 296 299 298 293 292 299 300 290 257 251 243 236 225 217 214 215 206 197 198
224 219 217 238 257 257 245 245 265 276 280 287 294 298 303 305 304 298 291 292 294 294 294 292 293 296 299 302 309 313 312 306 282 265 251 233 218 209 201 199 201 199 197
221 211 216 234 249 259 262 262 264 266 276 286 293 300 301 301 306 305 294 287 280 270 274 282 281 288 295 299 303 302 299 294 286 275 233 210 199 193 190 187 186 188 193
214 217 226 237 250 257 264 269 264 254 268 287 297 300 304 305 305 308 310 292 277 281 269 256 258 266 263 283 294 296 295 285 277 253 219 213 208 199 188 183 184 189 190
Height
1517 1518 1519 1519 1519 1521 1521 1522 1522 1522 1523 1524 1524 1524 1524 1523 1523 1523 1522 1522 1521 1520 1520 1519 1519 1518 1517 1517 1516 1515 1514 1514 1513 1511 1509 1508 1507 1506 1506 1506 1507 1509 1511
1517 1519 1519 1519 1520 1521 1522 1522 1522 1522 1523 1523 1523 1523 1522 1521 1521 1520 1520 1519 1518 1517 1516 1516 1515 1514 1514 1513 1512 1512 1511 1510 1510 1508 1506 1504 1503 1501 1501 1500 1501 1502 1504
1516 1518 1518 1519 1520 1520 1521 1522 1522 1522 1522 1521 1521 1521 1520 1519 1519 1518 1517 1516 1515 1514 1513 1512 1511 1510 1509 1509 1508 1508 1507 1507 1506 1506 1505 1503 1500 1498 1497 1496 1496 1497 1499
1516 1517 1518 1518 1519 1520 1520 1520 1520 1520 1520 1520 1519 1518 1518 1517 1516 1515 1514 1513 1512 1510 1509 1507 1506 1505 1505 1504 1504 1503 1503 1503 1502 1502 1502 1501 1500 1498 1495 1494 1493 1494 1494
1516 1516 1517 1517 1518 1518 1519 1519 1519 1519 1518 1517 1517 1516 1515 1514 1513 1511 1510 1509 1507 1506 1504 1503 1502 1501 1500 1499 1499 1499 1499 1498 1498 1498 1498 1497 1496 1495 1494 1491 1490 1490 1490
1514 1515 1515 1516 1517 1517 1517 1517 1517 1516 1516 1515 1514 1513 1512 1510 1509 1507 1506 1504 1503 1501 1500 1499 1497 1496 1495 1495 1494 1494 1494 1494 1494 1494 1494 1493 1493 1492 1491 1489 1487 1486 1486
1513 1513 1514 1514 1515 1515 1515 1515 1514 1514 1513 1512 1511 1509 1508 1506 1504 1503 1501 1499 1498 1496 1495 1494 1492 1491 1490 1490 1489 1489 1489 1489 1489 1489 1489 1489 1489 1489 1488 1487 1485 1483 1482
1511 1511 1512 1513 1513 1513 1513 1513 1512 1511 1510 1509 1507 1506 1504 1502 1500 1499 1497 1495 1493 1491 1490 1488 1487 1486 1485 1484 1484 1483 1483 1483 1483 1483 1484 1484 1484 1484 1484 1484 1483 1481 1480
1509 1510 1511 1512 1512 1512 1511 1511 1510 1508 1507 1505 1504 1502 1500 1498 1496 1494 1492 1490 1488 1486 1484 1483 1481 1480 1479 1478 1478 1477 1477 1477 1477 1477 1478 1478 1479 1480 1480 1480 1479 1480 1477
1508 1509 1510 1510 1510 1510 1509 1508 1507 1505 1503 1502 1500 1498 1496 1494 1492 1490 1488 1485 1483 1481 1479 1477 1476 1474 1473 1472 1472 1471 1471 1471 1471 1471 1471 1472 1473 1474 1475 1475 1475 1475 1475
1507 1508 1509 1509 1509 1508 1507 1505 1504 1502 1500 1498 1496 1494 1492 1490 1488 1485 1483 1480 1478 1475 1473 1471 1470 1468 1467 1466 1465 1465 1464 1464 1464 1464 1465 1465 1467 1468 1469 1470 1470 1471 1471
1506 1507 1508 1508 1507 1506 1504 1503 1501 1499 1497 1495 1493 1491 1488 1486 1483 1480 1478 1475 1472 1470 1468 1465 1464 1462 1461 1460 1459 1458 1458 1457 1457 1458 1458 1459 1460 1461 1462 1464 1465 1466 1466
1505 1506 1506 1506 1505 1503 1502 1500 1498 1496 1494 1492 1489 1487 1484 1481 1478 1475 1472 1469 1467 1464 1462 1459 1457 1456 1454 1453 1452 1451 1450 1450 1450 1450 1451 1452 1453 1454 1455 1457 1459 1460 1462
1504 1504 1504 1504 1502 1501 1499 1497 1495 1493 1491 1488 1485 1482 1479 1476 1473 1469 1466 1463 1461 1458 1455 1453 1451 1449 1447 1446 1445 1444 1443 1443 1443 1443 1443 1444 1445 1447 1449 1450 1452 1454 1456
1502 1503 1502 1501 1500 1498 1496 1494 1492 1490 1487 1484 1481 1478 1475 1471 1467 1464 1461 1458 1455 1452 1449 1446 1444 1442 1440 1439 1438 1437 1436 1435 1435 1435 1436 1436 1438 1439 1441 1443 1446 1448 1450
1500 1500 1500 1498 1496 1495 1493 1491 1489 1486 1483 1480 1477 1473 1470 1466 1462 1459 1455 1452 1449 1446 1443 1440 1438 1435 1434 1432 1431 1430 1428 1427 1427 1427 1428 1429 1430 1432 1434 1436 1439 1441 1444
1498 1497 1496 1495 1493 1492 1490 1487 1485 1482 1480 1476 1473 1469 1465 1461 1457 1454 1450 1447 1444 1440 1437 1435 1432 1429 1427 1426 1424 1422 1421 1420 1419 1420 1420 1421 1422 1424 1426 1429 1432 1434 1437
1495 1494 1493 1492 1490 1488 1486 1484 1482 1479 1476 1472 1468 1464 1460 1456 1452 1449 1445 1442 1439 1435 1432 1429 1426 1423 1421 1419 1417 1415 1414 1412 1412 1412 1413 1414 1415 1417 1420 1422 1424 1427 1431
1491 1491 1490 1489 1487 1485 1483 1481 1478 1475 1472 1468 1464 1460 1456 1451 1447 1444 1441 1437 1434 1431 1427 1424 1421 1417 1415 1413 1411 1409 1407 1405 1405 1405 1406 1406 1408 1410 1413 1415 1417 1421 1424
1488 1487 1486 1485 1483 1482 1480 1477 1474 1471 1468 1464 1460 1456 1451 1447 1443 1440 1437 1433 1430 1426 1423 1419 1416 1413 1409 1407 1405 1403 1400 1399 1398 1398 1399 1400 1401 1403 1406 1408 1411 1414 1418
1484 1484 1483 1481 1480 1478 1476 1473 1470 1467 1464 1460 1456 1452 1447 1443 1440 1436 1433 1429 1426 1422 1419 1415 1412 1408 1405 1402 1399 1397 1395 1393 1392 1392 1392 1393 1395 1397 1399 1402 1405 1409 1413
1480 1480 1479 1478 1476 1474 1472 1469 1466 1463 1460 1456 1452 1448 1444 1440 1436 1432 1429 1426 1422 1418 1414 1411 1407 1404 1400 1397 1394 1392 1390 1388 1387 1386 1387 1388 1390 1391 1394 1397 1400 1404 1408
1476 1476 1475 1474 1473 1471 1468 1465 1462 1459 1456 1452 1448 1444 1440 1436 1433 1429 1425 1421 1418 1414 1410 1406 1402 1399 1396 1393 1389 1387 1385 1383 1382 1382 1382 1383 1385 1387 1389 1392 1395 1399 1402
1472 1472 1471 1470 1469 1467 1464 1461 1459 1455 1452 1448 1444 1440 1436 1432 1429 1426 1422 1418 1414 1410 1406 1402 1399 1395 1392 1389 1386 1383 1381 1380 1379 1378 1379 1380 1381 1383 1385 1387 1390 1394 1397
1469 1469 1468 1466 1465 1463 1460 1458 1455 1452 1448 1444 1441 1437 1433 1429 1425 1422 1419 1414 1411 1407 1403 1399 1395 1391 1388 1386 1383 1380 1378 1377 1376 1376 1376 1377 1378 1379 1381 1383 1386 1390 1394
1466 1465 1464 1463 1461 1459 1457 1454 1451 1448 1444 1441 1437 1433 1430 1426 1422 1419 1415 1412 1408 1404 1400 1396 1392 1389 1386 1383 1380 1378 1376 1375 1374 1374 1374 1375 1376 1377 1379 1381 1384 1387 1390